Weather in Krasnokumskoe

Russia / Stavropol Krai     44°10′29″N   43°29′47″E
temp.,
°C
wind,
m/s
gust,
m/s
humid.,
%
clouds,
%
prec.,
mm/h
press.,
hPa
HPBL,
m
15 june, tue
tue1500:00+17sse1187100 0.0 100911
03:00+18se2484100 0.0 100884
06:00+18sse2589100 0.5 1009180
09:00+23ese4673100 0.5 1009702
12:00+25ese336256 0.0 10091394
15:00+25e227087 0.1 1009690
18:00+25ese227127 0.0 1009262
21:00+20sw11800 0.0 101011
16 june, wed
wed1600:00+19s11850 0.0 101011
03:00+18sse11880 0.0 101011
06:00+20ese12840 0.0 101193
09:00+24ese47700 0.0 1010676
12:00+27ese68601 0.0 10091379
15:00+28ese69540 0.0 10071756
18:00+28e25670 0.0 1006227
21:00+23e715610 0.0 1007378
17 june, thu
thu1700:00+18ese377898 0.0 1006136
03:00+18ese1280100 0.0 100621
06:00+19wnw35860 0.1 1008143
09:00+22wnw8108187 1.9 1010639
12:00+25nw786676 0.4 10111366
15:00+24nnw68706 0.5 10131144
18:00+24nw687417 0.0 1014788
21:00+21wnw713821 0.3 1015457
18 june, fri
fri1800:00+18wnw5129518 2.9 1017418
03:00+18wnw612940 4.2 1016296
06:00+18nw5109440 0.3 1018459
09:00+20nnw458899 0.7 1019544
12:00+23nne237784 1.1 1018821
15:00+24ene457228 3.8 1018990
18:00+23ne477912 2.6 1018480
21:00+19ene22863 2.8 101913
19 june, sat
sat1900:00+18ese128088 0.0 101914
03:00+18ene227079 0.0 101924
06:00+18ese38870 0.0 1020231
09:00+24ese711610 0.0 10201089
12:00+26ese811500 0.0 10191774
15:00+28e812544 0.0 10172255
18:00+23e915600 0.0 1018693
21:00+20e816590 0.0 1019594